Temperature
17 16 16 16 16 17 17 17 17 17 18 18 17 17 17 17 17 17 18 18 18 19 19 19 19 18 18 18 18 18 17 17 17 17 16 16 16 16 15 15 15 15 15 15
16 16 16 17 17 17 17 17 17 17 18 18 17 17 17 17 17 18 18 18 19 19 19 19 19 19 18 18 18 18 17 17 17 17 16 16 16 16 15 15 15 15 15 15
16 17 18 18 17 17 17 17 17 17 18 18 18 17 17 17 18 18 18 19 19 19 19 19 19 19 19 18 18 18 18 17 17 17 16 16 16 16 15 15 15 15 15 15
16 17 18 17 17 18 17 18 18 18 17 16 17 16 17 17 17 17 18 18 19 19 19 19 19 19 19 19 18 18 18 17 17 17 17 16 16 16 16 15 15 15 15 15
17 17 17 17 18 18 18 18 18 18 17 16 17 16 16 16 17 17 17 18 19 20 20 20 20 19 19 19 18 18 18 18 17 17 17 17 16 16 16 15 15 15 15 15
17 18 18 18 18 18 18 17 17 16 16 17 17 16 16 16 17 17 18 19 20 20 20 20 20 19 19 19 19 18 18 18 17 17 17 17 16 16 16 16 15 15 15 15
17 18 18 18 18 18 18 17 16 16 16 16 17 17 17 18 17 18 18 19 20 20 20 20 20 20 19 19 19 18 18 18 18 17 17 17 16 16 16 16 15 15 15 15
17 17 18 18 18 18 17 17 16 17 16 16 17 16 17 19 19 19 20 20 20 21 20 20 20 20 20 20 19 19 18 18 18 17 17 17 17 16 16 16 15 15 15 15
17 17 18 19 18 18 17 16 16 16 17 16 16 17 18 19 18 19 19 20 20 21 21 21 20 20 20 20 19 19 19 18 18 18 17 17 17 16 16 16 15 15 15 15
17 18 18 19 19 18 17 16 15 16 17 17 17 17 17 19 19 18 18 19 20 21 21 21 21 21 20 20 20 19 19 18 18 18 17 17 17 16 16 16 15 15 15 15
17 17 18 18 18 18 17 17 16 15 16 16 17 17 18 18 18 18 18 20 21 21 21 21 21 21 20 20 20 19 19 18 18 18 17 17 17 17 16 16 15 15 15 15
17 16 17 18 18 19 18 18 16 17 16 15 16 17 19 18 18 18 19 20 21 21 21 21 21 21 20 20 20 19 19 18 18 18 17 17 17 17 16 16 15 15 15 15
17 16 17 18 18 18 18 18 17 15 15 15 16 18 18 18 19 19 20 20 21 21 21 21 21 20 20 20 19 19 19 18 18 18 17 17 17 17 16 16 16 15 15 15
18 16 17 18 18 18 18 18 17 16 16 16 16 18 18 18 18 19 20 20 20 20 20 21 21 20 20 20 20 19 19 18 18 18 17 17 17 17 16 16 15 15 15 15
17 17 18 18 18 19 19 19 18 17 17 17 18 18 18 18 18 19 20 20 20 20 20 21 21 20 20 20 19 19 19 18 18 18 17 17 17 16 16 16 15 15 15 15
16 18 18 18 18 18 18 19 18 18 18 17 17 18 18 19 19 19 19 20 20 20 21 21 21 20 20 20 19 19 19 18 18 17 17 17 17 16 16 16 15 15 15 15
16 17 17 17 17 19 18 18 18 18 18 18 18 18 18 17 17 18 19 20 20 21 21 21 21 21 20 20 19 19 19 18 18 17 17 17 16 16 16 15 15 15 15 14
15 15 15 16 18 18 18 18 18 18 18 17 17 17 17 18 18 19 20 20 21 21 21 21 21 20 20 20 19 19 19 18 18 17 17 17 16 16 16 15 15 15 15 14
15 15 14 15 17 17 18 19 18 18 19 18 17 17 18 18 19 19 20 21 21 21 21 21 21 20 20 19 19 19 18 18 18 17 17 17 16 16 16 15 15 15 14 14
14 14 14 14 17 17 18 19 19 19 19 19 18 18 18 18 17 17 20 20 21 20 20 20 20 20 19 19 19 18 18 18 18 17 17 16 16 16 16 15 15 14 14 14
15 14 14 14 16 16 17 18 19 19 18 20 19 19 18 18 18 20 20 20 20 20 20 20 20 19 19 19 18 18 18 17 17 17 16 16 16 16 15 15 15 14 14 13
15 14 14 13 15 16 18 17 17 18 20 20 20 20 20 20 20 20 20 20 20 19 19 19 19 19 18 18 18 18 18 17 17 16 16 16 16 15 15 15 14 14 13 13
14 14 14 14 16 17 17 18 20 20 20 21 21 20 20 20 20 20 19 19 19 19 19 18 18 18 18 17 17 17 17 17 16 16 16 16 15 15 15 14 14 14 13 13
13 13 13 13 14 16 18 19 20 20 20 21 20 20 20 20 19 19 19 19 18 18 18 18 17 17 17 17 17 16 16 16 16 16 15 15 15 14 14 14 13 13 13 13
14 13 13 13 14 16 18 19 20 20 20 20 20 20 20 19 19 19 18 18 18 17 17 17 17 17 16 16 16 16 15 15 15 15 14 14 14 14 13 13 13 13 12 12
13 13 14 15 17 16 18 20 20 20 20 20 19 19 19 19 19 18 18 17 17 17 16 16 16 16 16 15 15 15 15 14 14 14 14 13 13 13 13 13 12 12 12 12
Wind_Speed
5 6 3 3 3 3 5 6 5 1 1 4 4 3 3 5 6 7 6 7 7 8 5 4 5 5 6 5 5 5 6 5 5 3 3 3 2 2 3 5 8 8 8 8
6 3 1 3 5 6 6 6 3 2 2 3 2 1 3 5 7 8 10 10 10 7 5 5 5 5 6 6 6 5 6 5 4 3 3 3 3 2 1 3 6 8 7 7
4 1 2 5 6 5 3 4 4 3 3 3 3 3 2 3 4 6 7 8 8 10 10 8 7 7 6 7 7 7 6 5 4 4 4 4 3 3 3 3 3 5 7 7
3 0 4 6 4 4 1 2 5 5 4 0 2 1 5 4 4 7 9 9 9 9 8 8 8 8 8 8 6 6 6 5 5 5 5 5 3 2 1 0 1 3 6 7
1 2 4 3 2 4 3 3 4 3 4 2 1 2 6 2 6 9 10 11 10 9 10 10 10 10 8 7 7 6 6 5 5 5 6 6 4 2 1 1 2 3 4 6
2 1 1 2 2 4 5 6 6 5 4 0 3 3 5 5 9 8 9 10 11 10 9 9 8 7 7 6 6 6 6 5 5 5 5 6 6 5 3 2 1 2 2 3
3 2 1 2 4 3 4 5 3 3 2 3 3 3 8 8 8 11 11 11 11 10 10 9 9 9 9 9 8 7 8 6 6 6 5 6 6 6 5 3 2 1 1 1
2 1 2 2 4 5 3 5 5 3 3 3 1 5 7 6 6 7 8 8 8 9 10 10 11 11 10 10 9 9 9 7 7 6 6 5 5 4 3 3 3 2 2 1
4 1 1 2 2 6 5 2 4 5 2 1 4 5 7 3 1 2 5 6 9 10 10 10 10 10 10 10 11 11 10 8 7 7 6 6 5 5 4 3 3 2 2 1
6 2 1 1 3 2 4 6 5 4 3 1 5 4 4 5 3 3 5 8 8 8 8 9 9 9 9 9 9 9 9 9 7 7 6 6 5 5 4 4 3 3 2 2
4 4 1 1 3 4 4 3 4 4 4 4 2 6 5 6 6 6 7 8 8 9 9 9 8 8 8 7 8 8 8 7 7 7 6 5 5 5 4 4 4 3 2 2
4 4 1 4 3 3 4 5 6 4 2 3 3 6 6 5 6 6 6 6 6 7 8 8 8 7 7 8 8 8 8 8 8 7 6 6 5 5 5 4 4 4 3 3
6 5 3 4 4 1 1 3 4 5 4 4 3 6 4 3 3 2 4 4 4 5 6 6 6 7 8 8 8 8 8 8 7 7 7 6 6 6 6 5 4 4 4 3
6 4 5 5 5 4 3 3 5 5 4 4 6 8 9 7 5 4 3 3 4 5 6 7 7 7 8 8 9 9 8 8 8 8 8 7 7 7 7 6 5 5 5 4
5 3 3 4 3 3 4 4 6 7 7 7 7 7 10 8 6 5 3 3 4 5 6 7 7 7 7 7 8 8 8 7 8 8 8 8 7 6 6 5 5 4 4 4
3 4 2 2 2 2 2 5 5 6 5 6 5 7 8 5 2 1 2 3 4 5 6 7 7 7 8 8 8 8 8 8 8 8 9 7 6 6 6 6 5 5 4 4
4 5 3 2 4 2 3 6 6 5 5 7 7 9 4 2 2 3 4 4 5 6 6 7 7 8 9 9 9 9 9 8 8 8 8 7 7 7 7 6 6 6 5 4
7 5 4 1 2 2 7 3 5 4 5 6 6 6 4 4 2 1 2 4 5 5 5 6 6 6 6 6 6 6 6 7 8 8 7 7 7 7 6 6 6 6 4 5
5 7 5 4 2 5 7 3 4 4 4 5 6 6 3 2 2 4 2 2 5 5 4 5 5 6 6 6 6 6 6 6 7 7 8 8 8 8 7 7 7 5 5 5
6 5 6 4 4 5 7 4 1 3 4 5 5 5 3 4 2 4 4 1 1 0 1 2 3 4 5 4 6 7 6 6 7 8 8 7 8 9 9 8 6 4 5 5
3 4 4 5 5 7 7 4 3 4 7 4 4 5 6 6 6 3 1 1 1 2 2 3 5 5 4 5 7 7 6 7 7 6 5 6 7 8 7 6 5 4 4 4
6 5 5 5 4 8 4 4 6 7 3 2 3 4 6 5 2 1 1 1 2 2 3 4 4 3 3 5 7 6 5 5 3 4 5 5 5 5 5 6 4 4 5 4
6 8 7 8 7 5 3 6 5 3 3 3 3 3 5 4 3 2 1 1 1 2 2 3 4 4 3 3 5 5 4 2 4 4 4 4 4 4 4 5 5 3 4 4
4 3 4 3 6 5 5 5 4 4 5 4 4 4 6 5 4 3 2 1 2 2 2 3 4 4 2 2 3 3 2 4 5 4 3 3 3 3 3 3 4 4 5 4
6 5 4 4 6 5 5 5 4 3 3 2 1 3 6 6 4 4 3 2 1 1 1 3 4 3 2 2 1 1 3 5 5 4 3 3 3 3 2 2 3 4 5 6
6 8 8 8 8 6 6 5 3 2 3 3 3 2 3 5 5 4 3 2 2 2 2 3 3 3 2 2 2 2 2 4 5 3 2 2 2 2 2 2 1 3 4 6
Wind_Direction
30 66 101 158 153 135 121 118 112 133 148 130 151 177 204 178 177 189 195 201 210 219 224 193 177 162 148 143 144 144 139 139 129 113 105 92 68 31 26 37 45 51 56 57
51 48 202 121 107 95 105 112 106 73 101 132 140 237 231 190 195 198 198 204 208 207 197 193 181 173 169 166 166 158 157 158 155 141 131 121 115 82 44 25 40 45 51 53
106 164 133 116 112 108 109 151 153 139 85 71 95 338 266 232 209 209 209 207 205 201 197 196 188 187 176 176 181 175 169 163 154 137 112 89 67 48 31 16 15 23 44 52
82 109 123 114 113 127 148 167 145 132 107 54 131 235 270 229 224 220 217 209 210 209 199 196 190 188 189 189 179 168 165 158 151 143 141 140 139 140 185 343 5 22 43 49
84 131 116 118 150 150 172 134 114 103 111 72 64 162 278 226 233 235 223 214 213 206 198 197 195 192 191 182 174 169 158 152 150 152 153 142 136 141 118 68 49 33 30 41
90 121 138 150 112 137 123 87 68 53 75 29 218 176 269 225 219 228 222 213 210 203 198 197 192 181 181 174 168 164 160 161 155 155 155 154 152 147 132 112 79 31 15 23
36 18 17 125 94 73 94 100 71 28 23 253 219 196 249 242 224 214 215 212 205 196 191 188 184 185 185 180 177 172 168 171 165 160 165 167 163 161 165 170 165 138 41 9
118 293 238 183 162 159 156 138 149 172 207 277 217 230 256 261 246 218 209 199 192 194 192 192 193 190 189 185 180 177 178 178 171 170 175 169 165 165 175 180 178 179 188 217
152 241 285 197 158 136 132 146 154 129 133 320 283 286 301 312 341 191 187 181 192 197 196 196 192 189 188 186 185 184 182 180 177 177 172 168 171 173 180 178 171 180 192 174
139 138 301 158 90 52 134 141 105 114 136 288 307 292 269 291 282 237 202 203 205 196 194 193 190 189 189 188 183 180 183 184 180 177 178 176 176 177 170 156 164 176 177 131
124 127 347 89 187 182 127 122 119 118 144 150 280 284 237 246 247 234 226 214 205 197 195 192 191 187 180 173 174 179 183 180 178 180 178 169 172 168 159 161 174 176 168 154
142 124 177 254 263 188 169 172 152 149 196 167 179 272 277 260 255 228 228 223 209 198 192 186 179 172 172 177 179 182 184 186 187 180 174 174 169 163 164 173 179 169 167 159
143 121 87 0 352 17 150 172 157 130 123 153 176 270 301 331 316 244 219 214 200 184 174 170 168 176 184 186 186 185 186 189 181 172 172 174 174 175 181 185 181 169 164 158
124 119 155 187 218 202 217 193 162 140 153 200 224 255 295 309 303 286 235 197 180 175 173 173 181 189 190 190 189 188 191 186 179 174 177 184 191 190 188 183 178 174 168 166
118 144 196 231 233 187 211 217 186 190 193 197 233 244 268 277 270 264 227 178 165 171 175 183 189 191 189 190 193 193 192 187 181 178 187 197 192 182 175 175 178 173 172 179
112 143 140 314 311 204 253 261 217 217 213 220 243 267 264 271 264 254 209 182 189 200 198 194 191 190 193 195 197 193 192 189 179 185 196 192 178 178 182 183 177 172 176 176
138 136 130 275 314 38 296 255 216 212 213 196 219 244 268 290 273 243 223 207 212 217 210 201 199 199 201 201 196 196 194 179 178 189 190 182 178 184 190 185 176 183 187 182
142 128 133 141 62 254 252 251 206 213 248 220 223 246 241 227 238 270 226 215 230 226 216 211 205 201 199 191 187 181 167 172 181 187 188 183 181 188 186 182 188 194 188 187
140 135 125 130 177 280 295 270 189 193 275 231 219 240 232 189 32 343 303 224 223 221 213 207 199 188 176 175 171 156 160 170 180 192 195 190 184 185 184 193 200 197 189 197
71 100 119 133 161 232 252 263 217 128 293 254 204 216 188 128 99 278 303 299 277 227 152 154 144 134 148 164 155 154 166 174 195 204 202 191 186 187 193 200 198 191 193 205
89 87 134 163 205 253 254 264 128 152 243 252 199 199 171 176 198 225 342 28 54 87 91 112 121 131 153 153 150 157 170 198 209 200 188 183 188 193 195 191 188 185 187 188
173 164 178 155 187 250 246 144 175 214 237 219 202 189 175 187 184 137 78 71 76 77 79 97 115 121 122 138 148 159 195 210 178 166 172 182 185 191 186 178 182 178 176 188
192 189 185 187 210 242 230 218 242 213 215 223 203 196 168 166 174 151 119 91 69 86 93 100 117 113 106 138 152 171 205 158 142 145 165 177 172 177 170 174 177 174 179 194
245 165 154 226 260 259 264 259 263 224 217 223 200 183 165 169 174 162 144 115 76 64 91 106 109 111 119 150 162 180 155 138 134 140 151 152 150 154 156 169 177 182 191 202
213 167 176 238 263 289 287 248 242 226 196 180 163 161 167 160 161 157 148 143 125 103 100 115 125 133 143 132 113 88 120 132 130 132 136 141 147 157 164 181 197 202 210 205
197 181 183 221 222 201 240 249 214 183 189 180 152 128 143 155 160 148 146 147 134 127 121 119 122 125 123 112 96 79 110 131 132 130 136 150 153 159 166 179 268 268 245 248
Height
1518 1523 1528 1528 1528 1530 1533 1537 1541 1541 1537 1539 1543 1543 1543 1543 1545 1547 1548 1550 1552 1554 1556 1558 1560 1562 1564 1565 1566 1567 1568 1569 1570 1570 1570 1570 1570 1570 1570 1569 1569 1568 1567 1566
1524 1529 1526 1524 1526 1529 1533 1539 1542 1541 1538 1540 1544 1545 1542 1542 1543 1544 1546 1548 1550 1552 1555 1557 1559 1561 1563 1565 1566 1567 1568 1569 1570 1571 1571 1571 1571 1571 1571 1570 1570 1569 1568 1567
1528 1529 1525 1526 1529 1533 1536 1539 1541 1542 1541 1542 1545 1548 1544 1542 1542 1543 1545 1546 1548 1550 1553 1555 1557 1560 1562 1564 1565 1567 1568 1569 1570 1571 1571 1571 1571 1571 1571 1571 1570 1570 1569 1568
1528 1527 1527 1529 1532 1533 1540 1535 1537 1539 1547 1553 1549 1561 1547 1542 1542 1541 1542 1543 1545 1548 1550 1553 1555 1558 1560 1563 1565 1567 1568 1569 1570 1571 1571 1571 1572 1572 1572 1571 1571 1570 1569 1569
1530 1529 1529 1532 1532 1532 1536 1534 1536 1540 1547 1553 1552 1558 1551 1542 1543 1539 1537 1539 1541 1544 1547 1550 1553 1556 1559 1562 1564 1566 1567 1568 1569 1570 1571 1572 1572 1572 1572 1572 1571 1571 1570 1570
1529 1528 1529 1530 1530 1531 1533 1537 1541 1546 1551 1561 1553 1558 1555 1543 1537 1533 1533 1534 1537 1541 1544 1548 1551 1554 1557 1560 1562 1564 1566 1567 1568 1570 1570 1571 1572 1572 1572 1572 1571 1571 1571 1570
1532 1530 1529 1529 1532 1534 1536 1546 1558 1562 1565 1562 1550 1554 1548 1530 1526 1526 1528 1530 1533 1537 1541 1544 1548 1551 1554 1557 1560 1562 1564 1566 1567 1568 1570 1571 1571 1572 1572 1572 1572 1571 1571 1570
1538 1541 1531 1529 1531 1535 1538 1543 1558 1566 1567 1561 1552 1553 1537 1523 1521 1522 1524 1527 1530 1534 1537 1541 1544 1548 1551 1555 1558 1560 1562 1564 1566 1567 1569 1570 1570 1571 1571 1571 1571 1571 1571 1570
1537 1539 1529 1527 1528 1531 1539 1543 1544 1554 1557 1561 1556 1546 1531 1521 1520 1520 1522 1524 1527 1530 1534 1538 1542 1545 1549 1552 1555 1558 1561 1563 1564 1566 1567 1568 1569 1570 1570 1571 1571 1571 1570 1570
1529 1537 1530 1528 1529 1531 1533 1538 1548 1554 1562 1566 1556 1549 1541 1526 1523 1521 1521 1522 1524 1528 1531 1535 1539 1542 1546 1549 1553 1556 1559 1561 1563 1564 1566 1567 1568 1569 1569 1570 1570 1570 1570 1569
1526 1536 1536 1531 1532 1534 1536 1540 1544 1552 1554 1563 1563 1552 1526 1523 1520 1520 1519 1520 1522 1525 1528 1532 1536 1540 1543 1547 1550 1553 1556 1558 1561 1562 1564 1565 1567 1567 1568 1568 1568 1568 1568 1568
1525 1534 1540 1534 1527 1526 1529 1533 1541 1550 1554 1556 1560 1550 1519 1518 1517 1517 1517 1519 1521 1523 1526 1530 1534 1537 1541 1544 1547 1550 1553 1556 1558 1560 1562 1563 1565 1566 1566 1567 1567 1567 1567 1567
1523 1533 1544 1543 1539 1532 1531 1532 1535 1541 1550 1557 1558 1545 1518 1517 1515 1515 1516 1517 1519 1522 1524 1528 1531 1534 1537 1541 1544 1547 1550 1553 1556 1558 1559 1561 1563 1563 1564 1565 1565 1565 1565 1565
1518 1529 1538 1543 1538 1532 1531 1530 1533 1539 1549 1551 1547 1536 1522 1517 1515 1514 1515 1516 1517 1520 1522 1525 1528 1531 1534 1538 1541 1544 1547 1550 1553 1555 1557 1558 1560 1561 1562 1563 1563 1564 1564 1564
1518 1528 1528 1528 1525 1526 1527 1527 1530 1534 1535 1540 1534 1530 1521 1516 1514 1513 1513 1514 1516 1518 1520 1523 1525 1528 1531 1534 1537 1540 1544 1546 1549 1551 1553 1555 1557 1559 1560 1560 1561 1561 1562 1562
1518 1525 1527 1528 1525 1525 1527 1524 1525 1527 1528 1529 1528 1525 1514 1513 1512 1512 1512 1513 1514 1516 1518 1521 1523 1525 1528 1531 1534 1537 1540 1543 1545 1548 1550 1552 1554 1556 1557 1558 1559 1559 1559 1559
1521 1525 1532 1535 1529 1526 1532 1523 1521 1522 1520 1522 1524 1518 1511 1512 1511 1511 1511 1512 1513 1515 1516 1518 1521 1523 1525 1528 1531 1533 1536 1539 1542 1544 1547 1549 1551 1552 1554 1555 1556 1556 1556 1557
1519 1526 1534 1537 1534 1540 1527 1514 1514 1516 1515 1514 1513 1511 1510 1510 1510 1510 1510 1511 1511 1513 1514 1516 1518 1521 1523 1526 1529 1531 1534 1536 1538 1540 1543 1545 1547 1549 1551 1552 1552 1553 1553 1554
1514 1523 1534 1540 1540 1535 1521 1512 1513 1515 1514 1509 1509 1508 1508 1509 1509 1509 1509 1510 1510 1511 1513 1514 1516 1519 1521 1523 1526 1528 1530 1533 1535 1537 1539 1542 1544 1546 1547 1548 1549 1550 1550 1551
1517 1520 1531 1539 1538 1539 1521 1509 1508 1512 1516 1506 1505 1506 1507 1509 1514 1511 1509 1509 1509 1510 1511 1513 1515 1517 1519 1521 1523 1526 1527 1529 1531 1533 1536 1538 1540 1542 1543 1545 1546 1546 1547 1547
1522 1527 1532 1536 1536 1529 1511 1507 1509 1521 1517 1503 1503 1503 1505 1506 1508 1508 1508 1509 1509 1510 1511 1512 1513 1515 1517 1519 1521 1523 1524 1526 1529 1531 1533 1535 1537 1538 1540 1541 1542 1543 1543 1543
1520 1526 1530 1535 1535 1528 1505 1506 1509 1508 1502 1501 1501 1502 1503 1504 1506 1507 1507 1508 1509 1509 1510 1511 1512 1513 1515 1517 1518 1520 1522 1524 1526 1528 1530 1531 1533 1535 1536 1537 1538 1539 1539 1539
1514 1513 1516 1518 1516 1505 1502 1502 1501 1501 1500 1500 1500 1501 1502 1503 1505 1506 1507 1508 1508 1509 1509 1510 1511 1512 1513 1515 1516 1518 1520 1522 1523 1525 1526 1528 1529 1531 1532 1533 1534 1534 1535 1535
1508 1506 1509 1511 1505 1501 1500 1499 1499 1499 1499 1499 1499 1500 1501 1502 1503 1505 1506 1507 1507 1508 1508 1509 1510 1511 1512 1513 1515 1516 1518 1519 1521 1522 1523 1524 1526 1527 1528 1529 1530 1530 1531 1531
1502 1504 1506 1506 1501 1498 1497 1496 1497 1497 1497 1497 1498 1499 1499 1500 1502 1503 1504 1505 1506 1507 1507 1508 1508 1509 1510 1512 1513 1515 1516 1517 1518 1519 1520 1521 1522 1523 1524 1525 1526 1526 1527 1527
1497 1498 1502 1500 1494 1495 1494 1494 1495 1495 1495 1496 1496 1497 1498 1499 1500 1502 1503 1504 1505 1505 1506 1506 1507 1508 1509 1510 1511 1513 1514 1515 1515 1516 1517 1518 1519 1520 1521 1521 1522 1522 1523 1523